This demonstration page uses our WeatherBlox Daily Observations layout. Learn more.

Left ArrowRight Arrow

44.31136, -96.79839

Hourly Observations for September 22, 2021

Temp ( °F °C ) Dew Point ( °F °C ) Humidity (%) Winds ( mph kmh ) Pressure ( in mb ) Visibility ( mi km ) Precip ( " mm )
12:56 am 00:56 Clear 43 6.1 40 4.4 89 89 Calm 30.41 1030 10 16 0.00 0.00
1:56 am 01:56 Clear 43 6.1 39 3.9 86 86 Calm 30.40 1029 10 16 0.00 0.00
2:56 am 02:56 Clear 40 4.4 38 3.3 93 93 Calm 30.41 1030 10 16 0.00 0.00
3:56 am 03:56 Clear 42 5.6 40 4.4 92 92 SE 5 7 30.39 1029 10 16 0.00 0.00
4:56 am 04:56 Clear 40 4.4 38 3.3 93 93 ESE 5 7 30.39 1029 10 16 0.00 0.00
5:56 am 05:56 Clear 39 3.9 38 3.3 96 96 SSE 3 6 30.39 1029 10 16 0.00 0.00
6:56 am 06:56 Clear 40 4.4 38 3.3 93 93 E 3 6 30.40 1029 10 16 0.00 0.00
7:33 am 07:33 Mostly Sunny 39 4 37 3 93 93 SE 5 7 30.39 1029 10 16 0.00 0.00
7:42 am 07:42 Mostly Cloudy with Mist and Fog 41 5 37 3 87 87 ESE 7 11 30.38 1029 1 2 0.00 0.00
7:49 am 07:49 Partly Cloudy with Light Rain 39 4 37 3 93 93 ESE 6 9 30.39 1029 2 2 0.00 0.00
7:56 am 07:56 Partly Cloudy with Light Rain 41 5 39 3.9 93 93 SE 6 9 30.41 1030 7 11 0.00 0.00
8:56 am 08:56 Sunny 48 8.9 44 6.7 86 86 S 6 9 30.39 1029 9 14 0.00 0.00
9:06 am 09:06 Sunny with Mist and Fog 48 9 46 8 94 94 S 6 9 30.35 1028 1 2 0.00 0.00
9:14 am 09:14 Sunny 48 9 45 7 87 87 SSW 7 11 30.36 1028 10 16 0.00 0.00
9:56 am 09:56 Sunny 54 12.2 47 8.3 77 77 SSW 6 9 30.39 1029 10 16 0.00 0.00
10:56 am 10:56 Sunny 62 16.7 45 7.2 54 54 SSW 12 19 30.37 1029 10 16 0.00 0.00
11:56 am 11:56 Sunny 65 18.3 41 5 42 42 SSW 8 13 30.35 1028 10 16 0.00 0.00
12:56 pm 12:56 Sunny 67 19.4 39 3.9 36 36 S 13 20 30.33 1027 10 16 0.00 0.00
1:56 pm 13:56 Sunny 68 20 39 3.9 35 35 S 13 20 30.30 1026 10 16 0.00 0.00
2:56 pm 14:56 Sunny 69 20.6 37 2.8 31 31 SSE 9 15 30.27 1025 10 16 0.00 0.00
3:56 pm 15:56 Sunny 69 20.6 37 2.8 31 31 S 12 19 30.25 1025 10 16 0.00 0.00
4:56 pm 16:56 Sunny 69 20.6 37 2.8 31 31 S 13 20 30.24 1024 10 16 0.00 0.00
5:56 pm 17:56 Sunny 68 20 37 2.8 32 32 S 12 19 30.22 1023 10 16 0.00 0.00
6:56 pm 18:56 Sunny 64 17.8 38 3.3 38 38 SSE 9 15 30.21 1023 10 16 0.00 0.00
7:56 pm 19:56 Clear 59 15 40 4.4 49 49 SSE 10 17 30.20 1023 10 16 0.00 0.00
8:56 pm 20:56 Clear 56 13.3 40 4.4 55 55 SSE 10 17 30.20 1023 10 16 0.00 0.00
9:56 pm 21:56 Clear 55 12.8 40 4.4 57 57 SE 13 20 30.19 1022 10 16 0.00 0.00
10:56 pm 22:56 Clear 55 12.8 39 3.9 55 55 SSE 13 20 30.17 1022 10 16 0.00 0.00
11:56 pm 23:56 Clear 51 10.6 39 3.9 64 64 SSE 12 19 30.16 1021 10 16 0.00 0.00

Powered by AerisWeather